Regional Weather Roundup
Issued by NWS Memphis, TN

Home | Current Version | Previous Version | Text Only | Print | Product List | Glossary On
Versions: 1 2 3 4 5 6 7 8 9 10 11 12 13 14 15 16 17 18 19 20 21 22 23 24 25 26 27 28 29 30 31 32 33 34 35 36 37 38 39 40 41 42 43 44 45 46 47 48 49 50
000
ASUS44 KMEG 250612
RWRMEG
WEATHER ROUNDUP FOR TENNESSEE
NATIONAL WEATHER SERVICE MEMPHIS TN
ISSUED BY NATIONAL WEATHER SERVICE LITTLE ROCK AR
100 AM CDT THU MAY 25 2017

TNZ002-004-019-021-049-052-054-088>092-250700-
WEST TENNESSEE

CITY           SKY/WX    TMP DP  RH WIND       PRES   REMARKS
MEMPHIS INT`L  CLEAR     57  51  80 W8        29.69R
MILLINGTON     CLEAR     57  50  77 W6        29.67R
JACKSON        CLEAR     54  51  90 W9        29.65R
DYERSBURG        N/A    N/A N/A N/A MISG        N/A
$$

TNZ008-025-027-028-033-062-065-066-250700-
NORTH MIDDLE TENNESSEE

CITY           SKY/WX    TMP DP  RH WIND       PRES   REMARKS
NASHVILLE      CLOUDY    57  54  89 SW3       29.60F
SMYRNA         LGT RAIN  56  54  93 W3        29.62R
MURFREESBORO   NOT AVBL
CROSSVILLE     PTCLDY    49  47  93 SW5       29.60F
$$

TNZ061-075-076-078-094-096-097-250700-
SOUTH MIDDLE TENNESSEE

CITY           SKY/WX    TMP DP  RH WIND       PRES   REMARKS
$$

TNZ017-018-042-046-047-250700-
NORTHEAST TENNESSEE

CITY           SKY/WX    TMP DP  RH WIND       PRES   REMARKS
TRI CITIES     MOCLDY    56  54  93 SW6       29.56R
$$

TNZ012-013-036-069-073-074-250700-
EAST CENTRAL TENNESSEE

CITY           SKY/WX    TMP DP  RH WIND       PRES   REMARKS
KNOXVILLE      CLEAR     53  49  86 SW8       29.58S
OAK RIDGE      CLEAR     53  48  83 CALM      29.59S
$$

TNZ083-085-099-250700-
SOUTHEAST TENNESSEE

CITY           SKY/WX    TMP DP  RH WIND       PRES   REMARKS
CHATTANOOGA    LGT RAIN  58  55  90 CALM      29.62R
$$

SKY/WX REPORTED AS FAIR MEANS FEW OR NO CLOUDS BELOW
12 THOUSAND FEET.




USA.gov is the U.S. government's official web portal to all federal, state and local government web resources and services.